• MPC Preparation (Info)

  • MPEC 2010-F24 : 2010 FM

    The following Minor Planet Electronic Circular may be linked-to from your own Web pages, but must not otherwise be redistributed electronically.

    A form allowing access to any MPEC is at the bottom of this page.


    Read MPEC 2010-F23 Read MPEC 2010-F25


    M.P.E.C. 2010-F24                                Issued 2010 Mar. 18, 16:44 UT
    
         The Minor Planet Electronic Circulars contain information on unusual
             minor planets and routine data on comets.  They are published
       on behalf of Commission 20 of the International Astronomical Union by the
              Minor Planet Center, Smithsonian Astrophysical Observatory,
                              Cambridge, MA 02138, U.S.A.
    
                 Prepared using the Tamkin Foundation Computer Network
    
                                  MPC@CFA.HARVARD.EDU
           URL https://www.minorplanetcenter.org/iau/mpc.html  ISSN 1523-6714
    
                                        2010 FM
    
    Observations:
         K10F00M* C2010 03 17.24144 09 42 24.62 +16 05 22.6          20.4 V EF024G96
         K10F00M  C2010 03 17.24676 09 42 21.99 +16 07 22.8          20.3 V EF024G96
         K10F00M  C2010 03 17.25214 09 42 19.29 +16 09 23.2          20.2 V EF024G96
         K10F00M  C2010 03 17.25750 09 42 16.63 +16 11 23.5          19.5 V EF024G96
         K10F00M  C2010 03 17.30630 09 41 52.60 +16 29 28.6                 EF024G96
         K10F00M  C2010 03 17.30698 09 41 52.35 +16 29 45.0          20.7 V EF024G96
         K10F00M  C2010 03 17.30770 09 41 51.96 +16 29 59.4          20.1 V EF024G96
         K10F00M  C2010 03 17.30840 09 41 51.70 +16 30 14.3                 EF024G96
         K10F00M  C2010 03 17.31672 09 41 46.61 +16 33 02.3          19.2 R EF024H01
         K10F00M  C2010 03 17.32215 09 41 44.07 +16 35 00.7          19.0 R EF024H01
         K10F00M  C2010 03 17.33070 09 41 40.24 +16 38 05.8          19.4 R EF024H01
         K10F00M  C2010 03 17.33423 09 41 38.63 +16 39 22.6          19.5 R EF024H01
         K10F00M  C2010 03 17.33799 09 41 36.88 +16 40 42.7          19.5 R EF024H01
         K10F00M  C2010 03 18.19678 09 37 43.96 +21 18 08.2          20.4 V EF024G96
         K10F00M  C2010 03 18.19727 09 37 43.78 +21 18 16.4          20.3 V EF024G96
         K10F00M  C2010 03 18.19774 09 37 43.53 +21 18 23.8          20.1 V EF024G96
         K10F00M  C2010 03 18.19794909 37 34.69 +21 17 39.8          20.1 V EF024H21
         K10F00M  C2010 03 18.19823 09 37 43.35 +21 18 33.2          20.8 V EF024G96
         K10F00M  C2010 03 18.20637009 37 31.37 +21 19 59.9          20.2 V EF024H21
         K10F00M  C2010 03 18.21197709 37 29.19 +21 21 33.3          20.3 V EF024H21
         K10F00M tC2010 03 18.23142 09 37 30.14 +21 27 53.0          20.3 V EF024291
         K10F00M tC2010 03 18.23549 09 37 28.29 +21 29 04.2          20.2 V EF024291
         K10F00M tC2010 03 18.24107 09 37 26.18 +21 30 35.0          20.2 V EF024291
    
    Observer details:
    291 LPL/Spacewatch II.  Observer T. H. Bressi.  1.8-m f/2.7 reflector + CCD.
    G96 Mt. Lemmon Survey.  Observer R. E. Hill.  Measurers J. D. Ahern,
        E. C. Beshore, A. Boattini, G. J. Garradd, A. R. Gibbs, A. D. Grauer,
        R. E. Hill, R. A. Kowalski, S. M. Larson, R. H. McNaught.  1.5-m reflector
        + CCD.
    H01 Magdalena Ridge Observatory, Socorro.  Observers W. H. Ryan, E. V. Ryan.
        Measurer W. H. Ryan.  2.4-m f/8.9 reflector + CCD.
    H21 Astronomical Research Observatory, Westfield.  Observer R. Holmes.
        Measurer S. Foglia.
    
    Orbital elements:
    2010 FM                                                  Earth MOID = 0.0114 AU
    Epoch 2010 Jan. 4.0 TT = JDT 2455200.5                  MPC
    M  46.98888              (2000.0)            P               Q
    n   1.33303658     Peri.  202.49474     +0.95050054     -0.31055211
    a   0.8176636      Node   175.55944     +0.30147885     +0.91369020
    e   0.2711240      Incl.    7.64535     +0.07522776     +0.26215949
    P   0.74           H   27.0           G   0.15           U   9
    Residuals in seconds of arc
    100317 G96  0.7-  1.1+    100317 H01  0.0   0.1+    100318 H21  0.3-  0.5+
    100317 G96  0.1+  0.7+    100317 H01  0.5-  0.3+    100318 G96  0.5-  0.9+
    100317 G96  0.3+  0.4-    100317 H01  0.3+  0.2-    100318 H21  0.4-  0.0
    100317 G96  0.7+  0.9-    100317 H01  0.0   0.2+    100318 H21  0.2-  0.1+
    100317 G96  0.6-  0.3-    100317 H01  0.9-  1.0-    100318 291  1.1+  1.7-
    100317 G96  0.5+  1.2+    100318 G96  0.3-  0.6+    100318 291  1.4-  1.6+
    100317 G96  0.2-  0.2-    100318 G96  0.0   0.5+    100318 291  1.0+  0.4-
    100317 G96  0.9+  0.7-    100318 G96  0.8-  0.1-
    
    Ephemeris:
    2010 FM                  a,e,i = 0.82, 0.27, 8                   q = 0.5960
    Date    TT    R. A. (2000) Decl.     Delta      r     Elong.  Phase     V
    2010 03 15    10 00.51   -04 52.1    0.0135   1.007   154.5    25.2    18.8
    2010 03 17    09 43.87   +14 32.2    0.0188   1.011   147.2    32.2    19.8
    2010 03 19    09 34.47   +24 40.6    0.0254   1.015   138.8    40.2    20.6
    2010 03 21    09 28.69   +30 29.1    0.0324   1.018   132.8    45.9    21.3
    2010 03 23    09 25.00   +34 08.3    0.0397   1.022   128.3    50.0    21.9
    2010 03 25    09 22.65   +36 36.2    0.0471   1.025   124.7    53.2    22.4
    
    Sonia Keys                   (C) Copyright 2010 MPC           M.P.E.C. 2010-F24
    

    Read MPEC 2010-F23 Read MPEC 2010-F25


    MPEC number:

    Enter an MPEC number in one of the following forms:

    • 1997-B01 (the full form)
    • J97B01 (the packed version of the full form)
    • B01 (the abbreviated form)